Theta_e
316 319 320 322 324 323 321 324 321 322 323 313 314 315 316 320 319 319 321 322 322 321 319 319 319 319 319 320 321 320 320 319 319 316 319 331 327 317 327 330 331 339 338 342 342 336 336 337 341 342 342 342 341 341 341 339 337 339 338 337 338 337 339 338 337 337 338 339 339 340 340 339 339 339 338 338 338 338 338 338 338 338 338 337 337 337 337 336 335 333 332 329 326 323 321 319 317
320 324 324 324 324 323 322 324 318 317 317 311 315 315 315 319 318 318 322 321 321 320 319 319 319 319 318 319 319 320 320 320 321 318 325 328 324 321 321 323 329 338 338 341 343 337 338 338 339 341 341 342 341 341 341 338 337 339 338 337 338 338 338 337 336 337 339 339 339 340 339 340 339 339 337 337 336 335 335 335 335 335 335 335 335 335 334 333 331 329 327 325 322 319 316 314 313
323 326 325 325 323 322 321 322 317 312 313 310 312 316 317 316 317 319 320 320 319 319 318 319 320 320 318 319 319 320 321 320 322 318 324 326 327 330 322 319 326 336 339 340 343 340 340 340 338 340 341 342 342 341 341 338 337 338 338 338 338 338 337 337 337 337 338 339 339 340 339 339 339 338 336 335 334 334 333 333 333 333 333 333 333 331 330 328 325 324 322 319 317 314 311 310 309
322 326 325 324 322 323 321 322 321 314 311 310 310 316 318 316 318 319 319 319 319 319 319 320 320 320 319 320 321 320 321 319 323 319 324 329 330 333 326 319 324 335 339 340 344 341 342 341 338 340 341 341 341 341 341 339 338 337 337 337 338 337 337 337 337 337 338 339 339 340 340 339 338 336 335 334 333 333 332 333 332 333 333 332 332 330 327 325 323 320 318 315 312 309 308 307 306
323 325 324 324 322 323 323 321 321 315 312 312 312 315 318 316 317 317 318 319 319 320 318 320 321 320 319 319 321 319 322 320 323 320 324 330 325 328 327 320 322 333 339 340 342 342 342 341 339 339 341 341 341 342 341 339 338 338 338 336 337 336 337 338 337 338 338 339 340 340 339 338 337 335 334 333 332 332 332 332 332 332 331 331 331 329 326 323 320 316 313 310 307 306 304 304 303
325 323 322 323 322 322 321 317 316 315 317 318 315 316 318 317 318 318 318 318 319 320 318 320 320 320 320 320 321 319 323 321 323 322 325 330 322 323 326 322 324 332 339 339 341 342 342 341 339 339 341 341 341 341 340 339 338 338 338 337 336 336 337 337 337 338 339 340 340 339 339 337 337 335 334 333 332 331 331 331 330 330 330 330 330 327 324 320 316 312 308 306 304 302 301 301 300
326 325 322 321 321 320 318 315 315 315 319 321 317 317 318 317 319 319 319 320 320 319 318 320 319 320 320 320 321 321 324 321 324 326 324 325 321 322 325 325 327 332 337 338 340 342 341 341 339 338 340 341 341 341 341 340 339 338 339 338 336 336 337 337 338 338 339 340 339 339 338 337 336 334 334 332 331 330 330 330 330 329 328 329 328 324 321 317 312 308 305 303 301 300 300 300 299
324 325 323 321 323 322 318 316 317 317 319 319 318 318 318 318 319 319 320 320 320 320 319 319 318 319 320 320 321 321 322 319 322 324 320 320 319 320 324 328 329 332 336 338 340 342 340 340 339 339 340 341 341 341 341 340 339 339 339 338 336 336 337 337 338 339 339 339 339 339 338 337 335 334 333 331 331 329 329 329 328 328 327 328 325 321 319 315 310 306 303 300 299 299 300 299 299
321 322 323 321 323 321 318 317 318 319 319 318 318 318 318 319 319 319 319 320 320 320 320 319 319 319 320 319 320 322 322 319 318 318 317 317 318 319 323 329 331 332 336 338 340 341 340 339 339 338 339 341 341 340 340 340 339 339 339 338 336 336 336 337 338 338 338 339 339 338 337 336 335 334 332 331 330 329 328 328 327 327 326 326 324 319 316 312 308 304 300 299 299 299 299 299 300
320 320 322 322 320 317 315 316 318 319 319 318 317 318 318 318 319 319 319 320 320 320 320 319 319 319 320 320 320 324 323 318 315 317 316 316 318 320 324 329 331 333 336 338 339 341 339 338 339 338 339 340 340 340 340 340 340 339 339 338 336 335 336 337 337 338 338 338 338 337 336 335 334 333 332 331 329 327 327 326 326 326 326 325 321 316 313 311 308 303 299 299 299 299 299 299 299
323 320 321 321 317 313 312 314 316 318 318 318 318 318 319 318 318 319 319 320 319 320 319 317 319 319 319 319 320 324 320 316 317 320 319 316 317 321 327 331 332 334 336 338 339 339 339 338 338 338 339 340 340 340 339 340 339 339 339 338 337 336 336 336 338 338 337 337 337 336 335 334 333 332 331 330 327 326 325 325 325 325 325 321 315 314 314 312 309 304 300 299 299 299 299 299 299
324 322 321 318 315 314 314 314 315 318 319 318 320 319 318 319 318 319 319 320 319 319 319 318 319 319 319 319 321 323 319 318 320 321 318 316 318 320 328 332 332 334 336 337 338 338 338 338 337 338 340 340 340 340 339 339 339 338 338 337 337 337 337 337 338 337 337 336 335 335 334 333 332 331 330 328 327 325 324 325 324 324 323 317 313 314 313 311 308 303 299 299 299 298 298 298 298
322 322 321 318 318 318 316 316 317 318 319 318 319 319 318 318 318 319 319 319 319 319 319 319 318 318 318 318 320 321 320 320 319 318 315 317 322 323 327 332 332 333 335 336 336 335 335 337 338 338 339 339 339 339 339 339 339 338 337 337 337 337 337 337 337 337 336 335 334 334 333 332 330 329 328 327 326 324 323 324 324 324 322 319 318 317 314 310 305 300 298 299 298 298 298 298 298
322 322 321 319 320 320 317 316 317 317 317 318 318 318 318 317 319 318 317 317 317 318 318 318 318 317 318 318 319 320 322 319 316 315 315 317 322 326 329 332 332 332 334 334 334 333 334 337 337 338 339 339 339 339 338 338 338 337 337 337 337 337 337 337 336 336 335 334 334 334 332 330 329 328 326 326 324 322 322 324 323 322 322 320 320 319 317 311 302 298 298 298 298 298 298 298 298
322 321 320 319 318 318 320 318 317 316 316 318 318 317 317 317 318 317 317 316 317 318 317 317 317 317 317 318 318 321 321 317 315 314 315 316 319 326 329 331 332 332 332 333 332 332 333 335 336 337 338 338 338 339 338 338 337 337 337 337 337 337 336 336 335 335 334 334 333 333 332 329 327 327 326 325 323 321 320 322 321 320 321 320 319 319 316 308 300 299 298 298 298 298 297 297 297
321 321 321 320 317 316 320 321 319 316 317 318 317 316 317 317 317 317 316 316 316 317 317 317 317 317 317 317 319 321 318 315 314 314 317 318 320 325 328 329 330 330 331 332 331 331 332 335 335 335 337 338 339 339 338 338 337 336 337 336 336 336 336 335 335 334 333 333 332 332 331 329 327 326 326 324 322 320 319 320 319 318 320 319 319 318 311 303 300 299 297 297 298 297 297 297 297
320 321 320 318 317 315 319 321 318 316 317 318 317 317 316 316 317 316 316 315 316 317 317 317 317 317 316 317 319 318 316 314 314 316 320 322 324 326 327 328 329 330 331 330 330 330 331 334 335 335 335 336 338 338 338 338 337 336 336 336 336 336 335 334 334 333 333 332 330 330 328 327 327 326 325 324 322 320 318 318 317 317 319 320 319 314 305 301 299 297 297 297 297 297 297 297 297
320 321 319 317 317 316 318 319 317 316 317 317 317 317 316 316 317 316 316 315 316 316 317 317 317 318 317 318 319 317 316 316 317 319 323 325 325 326 327 328 328 330 331 331 330 330 331 333 334 334 334 335 336 336 336 337 337 337 336 336 336 335 335 334 333 333 332 330 329 328 327 326 326 325 324 324 322 320 319 318 315 316 318 320 317 310 303 301 299 297 297 297 297 297 296 297 297
319 320 318 318 319 317 318 318 316 316 316 316 316 317 316 316 316 316 316 315 316 316 317 317 317 318 318 319 318 318 316 318 320 320 321 324 324 324 326 328 328 330 331 331 331 330 331 332 333 334 334 334 334 335 335 335 336 337 336 336 335 335 335 334 333 332 330 329 328 327 326 326 325 325 324 323 322 320 320 318 314 314 318 319 316 309 303 300 298 297 296 297 297 296 296 296 297
318 319 317 318 319 317 318 317 317 316 316 316 316 316 316 316 316 316 315 315 316 316 317 316 317 317 318 318 318 319 318 318 320 319 320 321 323 323 323 326 329 329 330 331 331 331 331 331 332 333 333 334 334 334 335 335 335 335 335 335 334 333 333 333 332 330 329 328 328 327 326 326 325 324 323 322 321 320 320 318 313 314 317 318 315 309 305 301 297 296 296 296 296 296 296 296 296
318 319 318 317 317 317 318 317 317 317 316 316 315 315 316 316 316 316 315 315 316 316 317 316 316 317 317 318 317 319 318 318 319 320 320 319 321 322 321 323 325 328 329 330 331 331 330 331 332 332 333 333 333 333 334 334 334 334 333 333 333 332 331 331 330 330 329 328 328 327 325 325 324 324 323 321 321 320 320 317 314 315 318 317 314 310 305 300 297 296 296 296 295 296 296 296 296
318 319 318 316 316 316 316 317 317 316 316 316 315 315 316 316 316 315 315 315 315 316 316 316 316 316 316 316 316 318 318 318 318 319 320 320 319 320 321 321 322 325 328 329 330 331 331 330 331 332 332 333 333 332 333 333 332 332 332 331 332 332 331 330 330 329 329 328 327 326 325 325 324 323 323 321 320 319 319 317 314 316 317 315 312 310 308 302 297 296 296 296 295 296 296 296 296
317 316 316 316 316 316 316 317 317 316 316 315 315 316 316 316 316 316 316 316 316 316 316 316 316 316 317 316 316 317 317 317 317 318 319 319 319 319 320 320 321 323 327 328 328 330 331 330 331 331 332 332 332 332 332 332 332 332 331 331 331 331 330 330 329 328 328 327 326 326 325 325 323 322 322 321 320 317 318 317 316 316 317 315 310 311 312 304 298 297 296 296 296 296 296 296 296
317 315 314 315 316 316 316 316 316 316 316 315 315 315 315 316 316 316 316 316 316 317 317 316 316 317 317 316 316 316 316 316 316 317 318 318 319 319 319 319 320 321 324 327 327 328 329 330 330 331 331 331 332 332 331 331 331 331 330 330 330 330 329 329 328 327 327 326 326 325 325 324 322 322 320 319 318 316 317 317 317 316 316 315 311 311 312 304 298 297 295 296 296 296 297 296 296
317 316 315 315 315 316 316 316 316 316 316 315 315 315 315 315 315 315 315 315 316 317 316 316 316 316 316 316 315 316 316 316 316 317 317 318 318 319 319 319 319 320 321 324 326 326 327 328 328 329 330 331 331 331 331 331 330 330 330 330 330 330 329 328 327 326 326 326 325 325 324 324 322 321 319 318 317 315 317 317 317 317 316 315 311 309 307 301 297 296 296 296 296 296 296 296 296
315 316 316 316 315 315 315 315 315 315 316 315 315 315 315 315 314 314 315 315 315 316 316 316 316 315 315 315 315 315 315 315 316 316 316 318 318 319 319 319 320 320 320 321 324 325 325 326 327 327 328 329 330 330 331 330 330 330 329 330 330 329 328 328 327 327 326 325 325 325 324 323 322 321 319 317 316 315 316 317 317 316 314 313 309 306 303 298 297 296 296 296 296 296 296 296 296
314 314 314 314 314 313 314 314 314 314 315 314 314 314 314 314 314 314 315 315 315 316 315 315 315 315 315 315 315 315 315 315 315 316 316 316 318 319 319 319 320 320 320 320 321 323 323 324 325 325 325 326 328 329 329 329 330 330 329 329 329 328 328 327 327 327 326 325 324 324 323 323 322 321 318 316 315 315 315 315 314 313 311 310 307 304 300 297 296 296 296 296 296 296 296 296 295
313 313 313 313 313 313 313 314 314 314 314 314 314 314 314 314 313 314 315 315 315 315 315 315 315 315 315 315 316 315 315 316 316 316 316 316 317 318 318 319 319 319 319 319 319 321 322 323 323 323 323 324 325 327 328 328 329 329 328 328 328 328 327 326 327 326 326 325 323 323 322 322 322 320 317 316 314 313 313 312 311 309 308 306 303 301 299 297 297 296 296 296 296 295 295 296 295
312 312 312 312 313 314 314 314 314 315 314 313 313 313 313 314 314 315 315 315 315 315 315 315 314 315 315 315 315 315 315 316 317 317 316 316 316 316 317 318 318 319 318 318 318 319 320 321 322 322 323 323 323 325 326 327 327 327 327 327 327 327 327 326 326 326 325 324 323 322 321 321 321 320 317 315 313 312 311 309 308 306 305 304 302 300 298 297 297 296 296 296 296 295 296 295 295
312 312 312 313 314 314 315 316 315 314 313 312 312 311 312 315 315 315 316 316 315 315 314 314 314 314 314 315 315 315 315 316 316 317 317 316 316 315 315 316 317 318 318 318 318 318 318 318 319 321 322 323 322 323 325 326 326 326 326 326 326 326 326 325 324 325 324 323 323 322 321 320 320 320 317 315 312 310 309 307 306 304 303 302 301 299 297 296 296 296 296 296 295 295 295 295 295
312 313 313 313 313 314 316 316 313 314 312 311 312 310 312 314 315 315 316 315 314 314 314 314 314 314 314 315 314 315 315 315 315 316 316 316 316 315 315 315 315 316 317 318 317 316 316 316 317 318 320 321 322 322 324 325 325 325 325 325 325 325 325 324 324 324 323 322 322 321 320 319 319 319 317 315 312 310 308 306 304 303 302 301 300 298 297 296 295 295 296 295 295 295 295 295 294
313 313 313 314 314 314 317 317 314 314 312 311 312 312 313 315 315 316 316 314 314 314 314 314 314 314 314 314 314 315 314 315 316 315 315 315 315 315 315 315 314 314 315 316 316 314 315 316 316 316 317 318 321 321 322 324 325 324 324 324 324 324 324 324 323 323 322 322 321 320 319 318 318 318 317 314 312 309 307 305 303 302 301 300 299 298 297 296 295 295 295 295 295 295 295 295 294
315 314 313 315 314 314 316 317 316 315 312 311 312 312 314 315 315 315 315 314 314 314 314 314 314 314 314 315 314 315 315 315 316 315 315 315 315 314 314 314 313 313 313 314 315 315 315 316 315 315 315 317 320 321 321 323 324 323 324 323 323 323 323 323 322 321 321 320 320 319 318 318 317 317 317 314 311 309 307 305 303 301 300 299 298 298 296 296 295 295 295 295 295 295 295 295 294
315 316 315 315 315 315 314 317 317 314 312 312 312 312 313 314 314 314 314 314 314 314 314 314 314 314 314 315 315 315 315 315 315 316 316 315 314 314 313 313 313 312 312 312 313 314 315 315 315 315 315 316 319 320 321 322 323 323 323 323 323 322 322 322 321 320 320 319 319 318 318 317 316 316 316 315 312 309 307 305 303 301 299 298 298 298 296 296 295 295 295 294 295 295 295 295 295
315 316 315 315 316 315 314 316 317 315 315 314 313 313 313 313 313 314 314 314 314 314 314 314 314 314 315 315 315 315 315 316 316 316 316 315 314 314 314 313 313 313 312 312 312 312 313 314 315 315 314 315 317 318 320 321 322 322 322 322 322 321 321 321 320 320 319 318 318 317 317 316 315 316 316 315 313 309 307 305 303 301 299 298 298 297 297 296 296 295 295 295 295 295 296 296 295
316 316 315 315 314 314 315 316 318 317 316 315 314 314 315 315 314 314 315 314 315 314 314 314 314 315 315 316 316 316 316 316 317 317 316 316 315 314 313 313 313 313 312 311 311 311 312 312 313 314 313 313 315 316 318 319 320 320 320 321 320 320 320 319 319 319 318 318 317 316 316 315 314 314 314 315 313 310 307 305 303 301 299 298 298 297 296 296 296 295 295 295 295 296 296 296 295
317 317 315 315 314 314 316 317 317 316 315 315 315 315 314 315 314 314 314 314 314 314 314 315 315 315 316 316 316 317 317 317 318 318 316 315 315 314 314 314 313 312 311 311 310 310 311 311 312 313 313 312 313 314 316 318 319 319 319 319 319 319 319 318 318 318 318 317 316 315 315 315 314 313 313 313 313 310 307 305 303 301 299 298 297 297 297 296 295 295 296 295 295 296 296 297 296
316 315 315 315 315 315 316 317 317 316 315 315 315 314 314 314 314 314 314 314 314 314 315 315 315 316 316 317 317 317 317 317 317 316 315 314 314 314 314 313 313 312 312 311 311 310 310 310 311 312 312 311 311 312 314 316 317 317 318 318 318 318 318 317 317 317 317 316 315 315 314 314 313 312 312 312 312 311 308 305 303 301 299 298 297 297 296 296 296 295 296 295 295 295 295 296 296
315 314 315 315 315 316 317 317 317 314 313 314 314 314 314 314 314 314 314 314 315 315 315 316 316 317 317 317 317 316 316 316 315 314 314 314 313 313 312 312 312 312 311 311 310 310 310 310 310 310 311 311 311 311 311 313 314 315 316 316 316 317 317 316 316 316 315 315 314 313 313 312 312 311 311 310 310 310 308 305 302 301 299 298 297 297 296 296 295 295 296 296 295 294 295 296 296
315 315 315 315 316 316 316 317 316 314 313 314 315 314 314 315 315 315 316 315 315 316 316 316 317 317 318 317 317 316 315 315 314 313 313 313 312 311 310 310 310 309 309 309 309 309 309 309 309 309 310 310 310 310 309 310 312 313 314 314 314 314 315 314 313 313 313 313 312 311 311 311 311 310 310 309 309 308 307 305 303 301 299 298 297 296 296 296 295 295 295 296 295 295 296 296 295
316 316 316 316 316 317 316 316 316 315 315 315 314 314 315 316 317 317 316 316 315 316 316 316 318 317 317 318 317 316 315 314 313 312 312 311 311 310 309 309 308 307 307 307 307 307 307 308 308 308 309 309 309 309 308 308 309 311 312 312 311 311 311 311 310 311 311 310 310 310 310 310 310 309 309 309 308 308 307 305 303 301 299 298 297 296 296 296 295 295 295 296 296 295 296 296 294
316 317 317 317 317 317 317 316 316 315 316 314 314 315 316 315 317 317 316 316 316 316 317 317 318 317 317 317 316 315 314 313 312 311 311 310 310 310 309 308 308 307 306 306 306 306 306 307 307 307 308 308 308 308 308 307 308 309 310 310 310 309 309 309 309 309 309 309 308 308 308 308 308 308 308 308 307 307 307 305 303 301 299 298 297 296 296 296 296 295 295 295 296 296 296 296 295
316 318 318 317 317 317 316 316 316 316 315 314 314 315 316 316 315 317 317 317 317 316 317 317 317 316 316 315 314 313 313 313 312 310 309 309 310 309 308 308 307 307 306 305 305 305 305 305 306 306 306 307 307 307 307 307 307 307 308 308 308 309 309 309 309 309 309 308 308 307 307 307 306 307 307 307 306 306 306 306 304 302 300 298 297 296 296 296 296 296 295 295 295 296 296 297 296
317 318 317 317 316 316 317 316 316 315 315 316 315 315 317 317 316 318 318 316 317 317 317 317 316 315 314 312 312 312 312 312 311 310 308 308 308 308 307 306 306 306 305 305 304 304 304 304 304 305 305 305 306 306 306 306 306 306 306 307 307 307 307 308 308 308 307 307 307 306 306 305 305 305 305 305 305 305 305 305 304 302 300 299 297 296 296 296 296 296 296 295 295 295 296 297 297
317 315 314 315 314 314 315 315 315 315 316 317 317 316 317 318 316 317 317 316 317 317 316 316 315 314 312 311 311 311 311 310 309 308 307 306 307 306 306 305 304 304 303 303 304 304 303 303 303 303 303 304 304 304 305 305 305 305 305 306 306 306 306 306 306 306 306 305 305 305 304 304 303 303 303 303 304 304 303 303 303 302 301 299 298 297 296 296 296 296 296 295 295 295 296 296 297
315 313 313 314 314 314 314 314 314 314 316 318 318 317 318 318 316 315 316 316 317 316 315 316 315 312 311 311 311 310 309 308 306 306 305 305 305 304 304 304 303 303 302 302 303 303 302 302 303 302 302 302 302 303 303 304 304 304 305 305 305 306 306 306 305 305 305 305 304 304 303 303 302 302 302 302 302 302 302 302 302 302 301 300 299 297 296 296 296 296 296 295 295 295 295 296 297
313 314 314 315 315 315 314 314 313 315 318 319 318 317 317 318 317 315 316 315 316 316 314 314 313 311 310 310 309 308 307 305 305 304 303 304 304 303 302 302 302 302 301 301 302 302 302 301 301 301 301 301 301 301 302 303 303 304 304 304 304 305 305 305 305 305 305 305 304 304 303 302 302 301 301 300 300 301 301 301 301 301 300 300 299 298 297 296 296 296 296 295 295 295 295 295 296
312 313 314 315 316 316 315 315 314 317 321 319 317 317 317 318 317 316 316 315 315 315 314 313 312 310 309 308 306 305 304 303 303 302 301 302 301 301 301 301 300 300 300 300 301 301 301 301 301 300 300 300 300 300 301 301 302 302 303 303 303 303 304 304 304 304 304 304 304 304 303 302 302 301 300 300 300 300 300 300 300 300 300 299 299 298 297 296 296 296 296 295 295 295 295 295 296
312 313 313 316 318 319 319 319 318 320 320 316 316 317 318 318 316 316 316 315 314 314 313 311 310 309 308 306 304 303 302 302 301 300 300 299 299 300 300 299 299 299 299 299 299 300 300 300 300 300 300 299 300 300 300 300 300 300 301 301 302 302 302 303 303 303 303 303 304 303 303 302 302 301 300 299 299 299 299 299 299 299 299 299 298 298 297 297 296 296 296 295 295 295 295 295 295
312 314 315 317 319 320 321 321 319 320 318 314 313 317 318 317 316 317 317 314 313 311 310 309 308 307 305 304 303 302 301 301 300 299 298 298 298 299 299 298 298 298 298 298 298 298 299 299 300 300 299 299 299 299 299 299 299 299 299 299 300 300 301 301 302 302 302 302 302 303 302 302 302 301 300 300 299 299 298 298 298 298 298 298 298 298 297 297 296 296 295 295 295 295 294 294 295
314 315 316 317 318 319 320 319 319 320 319 315 314 316 317 317 316 315 315 312 310 309 308 307 306 304 304 303 302 301 300 299 299 298 298 297 297 297 297 297 297 297 297 297 297 297 297 298 299 299 299 299 298 298 299 299 299 299 299 299 299 299 299 300 300 300 300 301 301 301 301 301 301 301 301 300 299 299 298 298 298 298 298 298 297 297 297 296 296 296 295 295 295 295 295 294 294
315 314 315 316 317 318 318 319 319 320 319 317 316 317 317 316 315 314 313 310 308 307 306 305 304 303 303 302 301 300 299 299 298 298 297 296 297 296 296 296 296 296 296 296 296 296 296 296 297 297 298 298 298 298 298 298 298 298 298 298 298 298 298 299 299 299 299 299 300 300 300 300 300 300 300 300 299 299 298 298 297 297 297 297 297 297 296 296 296 295 295 295 295 295 294 294 294
314 313 315 315 315 316 318 319 319 318 319 319 318 318 317 316 316 315 313 309 307 306 305 304 304 303 302 301 300 300 299 298 297 297 296 296 296 296 295 295 295 295 295 295 295 295 295 295 295 296 296 296 297 297 297 297 297 297 296 297 297 297 297 298 298 298 298 298 298 299 299 299 299 299 299 299 299 298 298 297 297 297 297 296 296 296 296 296 295 295 295 295 294 294 294 294 294
313 313 314 313 313 314 314 317 318 319 319 319 318 318 317 317 318 316 313 310 307 306 304 304 303 303 302 301 300 299 298 298 297 296 296 296 295 295 294 294 294 294 294 294 294 294 294 294 295 295 295 295 295 296 296 296 296 296 296 296 295 295 296 296 297 297 297 297 298 298 298 298 298 298 298 298 298 298 297 297 297 296 296 296 296 296 295 295 295 295 295 295 294 294 294 294 294
313 312 312 312 314 315 314 315 316 318 320 319 318 317 317 317 317 316 314 311 308 305 305 304 303 303 302 301 300 299 298 297 297 296 295 295 295 295 294 294 294 294 294 294 294 294 294 294 294 294 294 294 294 294 295 295 295 295 295 295 295 295 294 295 295 296 296 296 296 297 297 297 297 297 297 297 297 297 296 296 296 296 296 295 295 295 295 295 294 294 294 294 294 294 293 293 293
310 309 310 312 313 314 316 316 315 318 320 320 320 319 318 317 316 316 314 310 307 306 305 304 303 302 301 301 300 299 298 297 297 296 295 295 295 294 294 294 293 293 293 293 293 293 293 293 293 293 294 294 294 294 294 294 294 294 293 294 294 294 294 294 294 294 294 295 295 295 295 296 296 296 296 296 296 296 296 295 295 295 295 295 295 294 294 294 294 294 294 293 293 293 293 293 293
312 309 312 314 314 314 315 316 316 318 319 319 321 320 319 317 316 314 311 308 307 307 306 304 303 302 301 300 299 299 298 297 296 296 295 295 295 294 294 294 293 293 293 293 293 293 292 292 292 293 293 292 292 292 293 293 293 293 292 292 292 292 293 293 294 293 293 293 293 293 294 294 294 295 295 295 295 295 295 295 295 295 295 294 294 294 294 294 294 293 293 293 293 293 293 292 292
314 313 313 315 315 315 316 317 318 317 317 318 319 318 317 314 312 310 308 307 308 307 306 305 302 301 300 299 299 298 297 296 296 295 295 295 295 294 293 293 293 293 292 292 292 292 292 291 291 291 291 291 291 291 292 292 292 292 292 291 291 291 291 291 291 292 292 293 293 293 292 293 293 294 294 294 294 295 295 294 294 294 294 294 294 294 294 294 293 293 293 293 293 292 292 292 292
Wind_Speed
4 4 4 4 5 7 7 4 4 2 3 5 3 2 2 3 4 4 3 1 1 4 6 5 3 3 5 5 6 9 8 8 6 6 4 4 1 4 10 12 14 14 19 17 18 27 27 26 24 23 22 21 21 19 17 17 17 16 16 16 14 14 12 11 11 10 10 10 10 11 11 10 10 10 9 8 8 8 7 7 7 7 6 5 6 5 5 5 3 3 3 5 5 5 4 4 3
3 4 4 5 6 6 3 1 4 3 4 5 1 1 3 2 2 4 2 4 4 4 5 4 4 5 7 7 7 9 7 6 5 6 2 3 1 3 10 13 15 14 17 16 17 26 26 26 26 25 23 22 21 20 18 18 18 16 16 16 15 13 12 12 11 11 10 11 11 11 11 11 10 9 9 8 8 7 6 6 6 6 5 4 4 4 4 2 2 5 6 6 6 6 6 5 5
3 5 5 5 6 5 3 2 5 4 4 4 1 4 3 3 1 2 3 5 5 4 4 3 4 4 6 7 6 7 4 2 3 4 1 1 2 2 8 13 16 13 16 16 16 24 24 24 27 26 23 22 22 21 19 18 18 17 17 16 15 13 13 12 11 11 11 11 11 11 11 11 10 9 9 7 7 6 5 5 4 4 4 3 3 3 2 3 5 6 6 6 6 5 5 5 4
2 5 5 5 4 4 4 4 4 5 5 4 2 3 3 4 3 4 4 4 3 3 3 3 2 2 5 6 4 5 5 2 2 2 1 2 2 2 5 13 17 14 14 15 16 21 22 22 27 27 24 23 22 21 20 19 19 18 17 16 15 14 13 12 12 12 12 12 12 12 11 10 9 9 8 7 6 6 5 4 4 3 3 2 2 3 4 5 5 6 6 5 5 4 4 4 4
2 5 5 6 4 2 3 3 4 4 5 4 3 3 4 3 4 5 4 4 3 3 3 3 2 2 4 6 4 3 3 2 3 1 1 3 1 2 5 12 17 15 14 16 16 19 20 22 26 27 24 23 23 21 20 20 19 18 17 17 15 14 13 13 12 12 12 13 13 12 11 10 9 8 7 7 6 5 5 4 3 3 3 3 3 3 5 6 6 5 5 5 5 4 4 4 4
4 4 4 5 3 2 3 4 4 5 3 3 5 5 5 5 5 6 6 6 2 2 3 4 4 2 5 4 5 5 4 3 1 0 1 1 2 3 5 11 16 14 14 16 16 17 19 21 24 27 25 23 23 22 21 20 20 19 18 17 16 15 14 14 13 13 13 13 13 12 11 10 9 8 8 8 6 5 5 4 3 3 4 4 4 4 6 6 6 5 5 5 5 5 4 4 3
5 3 3 4 2 1 5 5 4 5 2 2 5 6 7 6 6 6 7 6 1 2 4 4 3 5 6 2 4 6 5 4 2 2 4 2 2 3 6 10 14 13 14 17 17 16 19 21 23 26 26 24 23 22 22 21 20 19 18 18 17 16 15 15 14 14 14 14 14 12 12 10 9 8 8 9 6 5 5 4 4 4 4 4 5 6 5 5 5 5 5 5 5 4 3 3 2
5 3 1 3 3 3 5 5 5 5 2 2 5 6 7 7 7 7 8 6 2 2 4 4 2 6 3 2 3 3 4 5 5 6 6 6 4 4 6 10 13 13 14 16 17 16 18 21 22 26 27 24 23 22 22 21 20 19 19 18 18 17 16 16 15 15 15 14 13 12 11 10 9 9 9 9 8 6 6 5 6 6 5 5 6 6 5 5 5 5 6 5 4 3 3 2 1
4 3 1 3 4 3 5 5 4 4 3 4 5 5 6 6 6 6 8 7 4 4 3 3 4 5 2 1 5 4 7 4 6 8 9 9 7 6 7 11 12 13 15 16 17 16 18 20 21 26 28 25 24 23 23 22 21 20 19 18 18 18 17 17 16 16 16 15 13 12 11 10 9 10 11 10 9 10 8 7 7 7 6 6 6 6 6 6 6 5 5 4 4 2 2 2 1
4 3 2 3 4 4 5 4 2 2 3 4 5 6 5 4 4 5 7 7 4 3 0 2 4 8 7 7 7 3 6 4 4 6 8 9 7 7 7 11 11 12 16 16 16 16 17 20 21 27 29 27 25 24 24 23 22 21 20 19 19 18 18 18 18 16 16 15 14 13 11 11 10 11 11 9 11 12 10 9 8 8 8 7 7 7 7 6 6 5 5 3 3 2 2 1 1
3 2 2 4 4 5 4 4 5 5 4 5 4 3 3 2 3 4 5 6 4 3 1 3 4 8 9 9 5 3 6 3 2 2 6 7 7 7 7 10 11 11 15 16 16 16 15 17 21 27 30 27 26 25 25 24 23 22 21 20 20 19 19 19 19 18 17 16 15 14 12 12 12 12 11 8 12 12 9 10 10 9 9 9 8 7 7 6 6 5 4 3 2 1 1 0 1
3 2 2 4 4 5 5 6 6 8 8 6 1 4 2 1 2 4 4 6 5 6 4 6 1 3 7 8 2 5 7 5 5 4 6 5 6 7 7 8 11 11 13 15 16 16 16 13 19 28 31 28 26 25 25 24 23 23 22 21 21 21 20 20 19 19 18 17 17 16 14 13 14 14 12 11 15 13 10 11 11 11 10 9 8 8 8 8 7 6 5 4 3 2 1 0 1
4 3 3 5 4 5 6 7 6 8 7 2 3 5 2 2 3 5 6 7 7 9 3 5 1 4 7 8 4 4 7 7 6 6 6 4 4 7 8 7 10 11 12 15 16 18 18 13 17 26 30 29 27 26 26 25 24 24 23 22 22 22 21 21 21 19 18 18 17 17 15 14 15 14 14 15 17 15 11 11 11 11 10 9 9 9 9 9 8 7 6 4 4 2 2 1 2
3 3 4 5 3 6 6 6 6 6 5 3 4 4 3 3 3 4 6 10 9 5 3 1 2 4 7 7 5 2 5 6 4 5 4 6 5 6 8 7 9 11 12 15 17 19 17 15 18 21 27 29 27 27 26 26 25 25 25 24 24 24 23 23 22 21 20 19 17 17 16 15 16 15 15 16 16 15 12 12 12 11 11 10 10 10 9 10 9 7 6 5 4 3 3 3 3
3 2 3 5 5 6 4 4 6 5 6 3 3 4 2 4 3 4 6 9 7 4 2 3 3 3 5 6 5 4 6 4 3 4 4 6 6 6 8 8 9 11 13 14 17 18 17 17 20 21 23 26 26 26 26 27 27 25 25 25 25 25 25 24 24 22 21 20 19 19 18 18 18 17 17 18 17 15 13 12 13 12 11 11 10 10 10 10 9 7 7 6 5 4 4 3 3
3 3 3 5 6 6 2 3 5 4 5 4 5 4 3 4 4 6 3 4 9 3 3 5 7 7 9 11 6 6 6 4 2 2 3 4 5 5 8 9 9 11 13 15 17 18 19 20 21 23 23 23 23 23 24 25 28 28 27 27 26 26 26 25 24 24 23 22 21 21 21 20 21 20 19 19 18 17 15 14 14 13 11 11 11 11 11 11 9 8 7 6 5 4 3 3 4
2 3 4 5 6 7 3 3 4 4 7 5 3 4 5 6 3 3 2 3 11 10 9 9 9 10 13 13 4 5 4 3 2 3 4 5 6 6 7 9 9 11 14 16 18 19 20 23 23 23 24 25 24 24 24 23 26 29 29 28 27 27 27 26 25 24 23 22 22 22 22 21 21 20 20 20 20 18 16 16 15 14 12 12 12 12 13 11 10 9 8 7 5 4 3 3 3
3 3 5 6 6 6 4 5 6 7 9 9 5 2 7 9 4 2 2 7 11 14 14 12 13 14 17 16 7 6 8 6 5 5 7 7 7 8 9 10 12 13 14 16 19 20 21 24 25 24 24 26 26 27 26 25 26 29 31 30 29 28 27 27 26 25 24 24 23 24 22 20 18 17 18 18 19 17 16 17 17 15 14 13 14 14 14 12 11 10 9 7 5 3 3 2 2
5 5 6 6 7 8 5 7 9 9 10 11 11 10 9 9 8 4 7 12 11 14 15 12 15 15 16 17 15 13 10 8 9 9 10 11 11 11 11 11 13 14 15 17 19 22 23 24 26 26 25 25 27 28 27 26 26 27 28 27 28 29 29 29 28 26 25 25 25 25 22 18 17 15 16 17 18 16 16 18 18 17 16 15 16 15 14 13 13 12 10 8 5 4 3 2 2
6 6 6 7 8 10 8 8 9 11 12 12 12 11 12 10 8 6 9 13 12 15 14 12 14 13 11 11 13 12 12 11 11 11 13 14 14 14 13 13 14 16 17 17 17 20 24 24 25 27 26 25 27 29 27 27 25 24 24 24 25 26 27 29 28 25 24 23 24 25 21 18 18 16 16 19 19 16 16 19 19 19 18 18 17 16 15 15 14 13 11 8 7 6 5 4 3
4 6 8 9 8 10 9 10 11 10 8 10 12 12 14 11 6 7 10 11 11 13 13 13 14 14 12 10 11 7 10 11 12 13 14 15 16 16 16 16 15 15 15 16 16 19 24 26 25 26 27 26 27 29 29 28 26 24 24 25 26 25 25 26 26 26 24 23 22 22 21 20 19 17 17 20 19 17 17 19 21 20 18 19 19 17 16 17 16 15 12 10 9 8 7 6 5
5 8 11 12 12 12 10 11 9 6 5 7 12 14 14 9 4 9 12 12 11 12 14 16 17 16 15 14 13 6 8 11 12 14 15 16 17 17 17 17 16 14 14 16 18 20 24 26 25 25 26 27 28 28 29 28 28 28 26 26 27 27 26 25 25 26 26 24 24 23 21 21 20 18 18 19 20 18 17 19 21 20 18 19 21 17 16 18 18 16 13 12 11 10 10 9 8
7 10 12 13 13 13 12 11 4 1 7 10 12 13 13 12 11 11 13 15 16 16 18 19 19 18 18 16 13 10 11 13 14 15 17 17 18 19 19 17 16 15 15 17 18 18 20 25 27 26 25 26 28 28 27 27 28 30 28 27 28 28 28 27 26 26 26 25 25 24 22 22 22 20 18 19 21 19 18 19 20 21 19 20 22 17 16 19 19 17 15 14 13 13 12 11 10
8 11 12 13 14 14 13 11 5 4 10 12 12 14 15 17 15 12 14 16 19 20 20 20 19 19 18 16 14 13 14 15 16 18 18 17 18 19 19 18 17 16 16 17 18 18 19 23 27 27 26 26 27 27 26 26 28 29 28 27 28 28 28 27 26 25 25 25 26 26 24 24 23 21 19 20 22 20 19 19 19 20 19 20 23 19 19 22 20 18 17 16 15 14 13 12 11
11 13 13 13 13 14 12 12 10 9 10 10 12 16 18 19 16 17 20 19 20 22 20 19 18 17 15 15 15 14 14 15 16 18 18 17 18 18 18 18 16 16 18 18 17 19 20 22 26 27 27 27 27 27 27 26 26 28 28 28 28 29 29 27 26 26 25 26 27 27 27 25 23 21 20 20 21 21 19 19 19 19 19 20 23 22 22 24 20 20 19 17 16 15 14 13 12
7 9 11 12 13 14 13 13 13 11 9 8 12 17 19 17 15 18 19 16 18 20 19 17 15 14 13 13 14 14 14 15 15 16 16 16 16 16 17 17 16 18 20 18 17 19 20 21 25 28 29 29 28 27 28 27 26 27 27 28 29 29 30 28 27 28 26 27 28 29 31 29 24 22 21 20 20 21 20 20 20 19 19 21 24 25 25 24 22 22 21 19 18 16 15 15 13
5 8 12 14 16 16 15 16 16 13 12 11 13 16 19 15 12 13 13 10 10 12 14 14 12 13 13 13 13 13 14 15 15 15 14 14 13 14 15 14 16 20 19 18 19 20 20 22 25 28 30 31 30 29 30 30 28 27 26 26 28 27 28 28 29 30 28 28 29 31 34 33 28 23 22 21 20 21 20 20 21 21 22 24 26 27 26 24 23 22 21 20 19 18 17 16 14
8 10 13 16 17 17 17 18 17 13 10 11 12 15 19 14 11 15 16 14 11 10 12 14 13 13 13 14 13 12 12 14 15 14 13 13 12 12 13 14 17 19 18 20 21 20 20 23 25 27 30 31 32 32 32 33 31 29 28 26 27 27 26 28 31 31 29 28 29 32 36 37 34 27 23 24 22 21 21 23 26 26 26 28 28 28 27 25 23 22 22 21 20 18 17 17 15
7 7 12 16 16 16 18 17 16 13 7 5 7 10 14 13 13 18 19 17 13 11 12 13 13 13 13 14 13 12 12 13 14 13 13 14 13 13 14 16 17 18 18 21 21 21 21 22 24 26 28 30 34 34 32 32 31 30 30 28 27 27 27 28 30 30 28 28 29 34 37 38 38 32 26 27 27 23 24 28 30 30 29 29 29 28 27 26 24 23 23 22 20 19 18 18 17
7 8 9 12 12 12 15 11 6 7 6 9 7 6 8 12 14 15 12 8 6 8 11 13 12 12 13 13 12 13 14 14 14 14 14 13 13 15 18 18 16 17 17 17 19 21 22 24 25 25 27 29 32 33 31 29 29 29 30 29 27 27 28 29 30 30 28 27 30 36 38 38 40 37 31 30 30 28 27 30 32 32 31 30 30 29 29 28 26 25 24 23 22 20 19 19 18
8 9 6 7 8 7 10 6 6 5 5 11 9 6 8 12 15 14 8 3 2 9 15 16 14 13 13 13 13 15 15 15 17 18 17 15 14 15 17 17 17 17 16 15 18 21 22 25 26 26 28 30 30 32 31 28 28 29 30 30 28 28 29 28 27 29 27 25 29 36 40 40 40 40 36 33 33 32 30 31 33 33 32 31 31 31 30 29 27 26 25 24 22 21 19 19 18
8 8 6 7 7 7 9 6 7 6 3 10 11 6 8 10 12 13 9 5 6 12 18 17 16 16 15 14 14 14 14 15 17 18 17 16 15 14 14 16 16 17 16 15 17 20 20 21 25 26 28 29 29 31 31 29 27 27 27 28 27 26 27 26 25 26 25 24 26 33 39 41 41 41 40 36 35 35 33 33 34 34 34 34 33 33 32 30 29 27 26 25 24 22 20 19 18
7 8 8 8 9 10 8 7 5 4 4 10 13 7 9 10 11 16 17 16 14 15 19 20 18 17 16 14 12 12 13 12 13 13 14 13 12 12 12 13 13 14 15 15 14 15 16 17 21 24 25 26 25 25 27 26 23 22 22 23 24 23 23 24 23 22 23 23 22 27 35 40 42 43 42 40 38 38 36 34 34 35 36 36 35 34 34 32 30 29 28 26 25 24 21 20 18
6 7 9 9 11 10 7 9 5 5 6 9 12 11 12 13 14 18 20 19 17 17 19 19 18 17 14 12 11 11 11 11 10 9 10 11 11 11 11 12 12 11 11 12 12 12 13 13 16 19 20 20 20 20 22 22 20 18 18 19 20 20 21 22 22 21 21 22 21 24 32 38 42 44 43 42 41 38 36 34 34 36 37 38 36 36 35 33 31 31 30 28 26 24 23 22 20
10 10 10 10 11 11 11 11 6 5 10 10 10 13 15 15 16 17 18 18 17 18 18 17 18 17 15 12 11 10 10 10 8 8 10 11 11 11 10 10 9 9 9 9 9 9 10 9 10 13 16 16 17 17 17 18 18 18 17 17 18 19 20 20 22 23 22 23 23 26 33 38 40 43 44 44 42 39 37 35 34 35 38 38 37 37 36 33 31 31 31 30 27 23 22 22 21
17 15 11 12 12 13 14 15 13 14 15 13 13 16 16 16 16 16 18 17 18 21 20 16 15 16 14 11 9 8 8 7 6 8 11 10 10 10 10 9 8 7 6 6 6 6 7 8 7 9 12 13 14 14 15 16 17 17 17 18 19 20 21 21 22 25 24 24 26 29 36 39 40 41 43 45 44 40 39 37 34 36 37 38 37 37 36 34 34 33 32 32 29 24 20 20 21
18 16 12 14 15 14 14 16 15 11 9 11 13 16 18 16 16 18 18 17 19 20 18 15 14 14 12 10 7 6 5 5 5 7 8 9 11 11 9 8 8 8 7 5 5 4 4 6 7 7 8 11 12 13 14 15 15 16 17 18 19 19 20 21 22 24 24 23 25 30 35 38 39 40 42 44 45 42 40 37 36 37 37 37 38 37 36 34 35 35 31 31 32 28 23 20 22
15 13 12 13 12 13 15 17 16 10 7 9 12 16 17 16 18 19 18 19 19 15 13 14 16 14 9 6 4 4 5 5 5 7 10 12 13 12 11 10 10 11 10 9 8 6 4 4 6 7 6 9 12 13 13 13 14 15 15 15 16 15 16 18 19 19 21 22 22 26 30 32 35 38 40 42 43 43 41 38 37 38 38 38 36 35 34 33 34 34 32 31 31 31 27 25 26
12 11 11 11 9 12 14 12 10 5 3 8 14 15 15 17 21 21 19 18 15 12 12 14 15 11 5 2 2 5 6 6 8 11 12 14 15 15 14 14 14 14 14 14 13 11 7 5 4 5 5 7 10 12 12 12 13 13 13 12 11 12 12 14 16 15 17 19 18 22 26 27 30 33 36 38 40 42 42 39 37 37 39 39 37 36 35 35 36 36 35 33 31 29 25 26 30
11 10 9 9 10 12 10 6 5 4 6 11 14 13 13 16 18 16 14 12 12 12 12 14 13 8 4 2 2 4 6 8 10 11 11 13 16 17 18 18 18 18 18 18 17 15 12 10 7 5 4 6 7 9 12 12 10 10 11 10 9 10 10 10 11 13 14 15 15 18 23 25 27 29 32 34 37 40 40 39 38 37 39 40 40 39 38 38 40 39 38 36 32 28 23 24 31
10 10 10 11 12 13 12 10 10 10 11 9 10 12 8 5 6 5 3 5 8 8 12 14 8 3 2 2 3 6 9 10 11 11 11 12 14 17 19 19 19 19 19 19 18 17 15 14 12 8 5 4 5 7 9 10 9 8 8 9 9 10 11 9 10 12 13 14 18 21 24 28 29 30 32 33 36 39 39 38 37 36 38 40 41 41 40 40 41 41 41 38 35 33 27 25 29
9 10 11 14 13 13 14 13 11 9 6 1 5 9 4 2 2 3 5 5 6 8 14 11 2 5 4 6 8 10 11 11 11 11 12 12 13 15 18 19 20 19 19 18 17 17 17 16 15 12 8 5 4 3 6 7 8 8 8 8 9 9 11 11 12 13 13 14 19 22 24 27 30 31 33 34 35 38 40 39 36 36 38 41 42 42 40 40 41 42 42 39 38 37 31 25 28
8 5 5 9 10 11 12 11 8 5 6 2 2 5 6 4 6 9 9 7 8 12 13 4 6 7 6 9 10 11 11 10 11 12 13 13 14 16 17 19 20 19 19 18 17 19 19 18 17 15 11 7 5 3 3 5 6 7 8 9 9 9 10 11 11 12 12 12 14 16 19 23 26 29 31 33 34 35 39 40 38 38 39 41 42 42 40 39 41 43 43 41 40 38 33 28 30
6 3 5 5 7 9 8 7 6 6 9 8 5 7 8 7 6 6 6 6 11 12 3 7 11 11 12 12 12 13 12 10 10 12 13 14 15 16 17 19 19 19 19 20 21 21 20 19 18 17 13 10 8 6 2 3 3 5 7 8 9 9 11 12 11 11 11 10 10 11 14 17 22 26 27 30 33 34 36 38 38 39 40 41 40 42 41 39 40 42 43 43 41 39 37 33 32
2 5 4 4 4 7 6 6 7 7 8 7 6 8 7 8 4 2 5 7 9 3 7 12 13 14 14 13 14 14 12 13 13 12 14 14 16 17 18 18 18 19 20 22 22 22 21 20 19 18 16 13 12 9 5 1 1 3 5 6 6 8 9 10 11 11 10 9 10 11 12 14 17 22 24 26 30 32 34 35 37 39 40 40 39 40 41 39 38 41 43 44 42 40 40 37 32
1 3 1 1 3 5 5 6 7 6 8 8 7 10 6 9 3 4 6 6 3 7 9 11 14 16 14 13 13 12 12 12 12 13 13 14 16 17 16 16 18 20 22 23 22 21 21 21 20 21 19 16 15 13 10 6 3 2 4 5 6 7 8 9 10 11 11 10 10 11 12 14 15 18 22 25 27 29 31 33 36 38 40 41 40 40 41 41 39 40 43 46 46 42 40 40 36
1 1 4 4 6 6 5 6 4 5 8 8 8 14 8 6 1 4 3 3 2 7 8 10 14 15 14 13 11 11 11 10 10 12 13 14 15 14 13 16 20 23 24 23 23 21 21 22 22 22 21 18 17 16 13 10 6 3 4 4 6 7 8 9 9 11 11 11 12 11 11 13 13 15 18 21 25 28 30 32 34 36 38 39 39 39 41 41 40 40 41 44 46 44 41 42 40
1 3 5 6 6 4 4 4 3 5 7 4 4 11 10 6 2 2 3 3 3 6 8 10 12 13 13 12 11 11 10 10 11 11 11 12 11 11 15 19 22 23 24 23 23 22 21 22 23 22 22 21 18 15 13 11 8 6 5 6 6 7 9 9 10 11 12 12 13 13 12 12 12 13 15 18 23 26 29 30 31 34 35 36 37 39 40 40 39 39 40 42 44 45 43 41 40
3 4 4 5 5 4 5 4 4 6 4 2 2 3 7 8 6 5 2 4 8 10 11 12 13 12 12 11 11 10 9 10 11 10 9 9 9 11 17 21 22 23 23 22 21 20 20 21 22 22 22 22 20 17 15 13 11 10 9 8 8 8 9 9 10 11 12 12 13 13 13 13 13 13 14 18 22 25 27 28 29 32 33 35 36 38 40 40 39 38 38 41 43 44 45 44 42
6 4 4 4 6 7 8 7 6 8 2 3 1 2 4 7 6 7 6 6 14 14 13 14 14 12 11 10 9 9 9 9 8 7 7 7 9 14 18 20 20 19 19 18 18 19 19 19 21 20 20 20 20 18 17 15 13 12 12 11 10 9 9 10 10 11 11 11 12 13 14 14 14 14 14 17 21 23 25 27 29 30 30 32 34 36 38 39 39 38 37 40 42 43 45 46 44
6 4 3 5 6 7 8 7 8 10 6 1 2 1 3 4 2 3 5 12 14 13 13 13 12 11 9 8 9 9 9 8 6 6 8 10 13 16 16 15 14 13 14 16 18 19 18 17 17 17 17 17 18 17 16 15 14 15 16 15 12 11 10 10 10 10 11 12 12 13 14 14 14 15 15 15 17 20 23 25 27 27 28 30 32 33 35 36 37 38 38 38 40 41 42 44 45
3 1 2 5 5 6 8 8 7 7 8 5 4 4 5 4 1 4 8 15 13 11 12 11 11 10 8 8 8 8 7 6 6 7 9 11 13 13 12 12 13 14 16 18 18 18 16 15 15 15 15 16 17 17 17 19 21 22 22 20 17 15 13 12 11 11 11 12 13 13 14 14 15 16 17 17 16 18 21 23 25 26 27 28 30 31 33 35 36 37 38 37 38 39 40 42 44
2 2 3 2 2 3 6 8 7 6 9 8 6 7 8 7 8 8 9 13 11 9 10 10 10 9 9 8 7 6 6 6 7 8 9 10 11 11 12 13 15 16 17 18 18 17 16 15 15 15 16 16 17 18 20 25 29 30 27 24 22 19 16 15 14 13 13 13 12 13 13 14 15 16 17 18 17 18 20 22 24 25 26 27 28 29 31 33 34 35 37 38 38 37 38 41 42
1 3 1 1 1 1 3 6 6 7 10 8 8 12 11 8 6 4 11 10 8 9 9 10 10 9 9 8 7 7 7 7 8 9 8 8 9 11 12 13 14 14 15 16 17 17 17 17 17 18 19 20 21 22 23 25 27 28 27 27 26 23 20 18 16 15 15 13 13 13 13 14 15 16 17 17 18 19 21 22 23 24 25 26 28 29 30 31 32 34 35 37 38 36 36 40 41
1 1 2 2 3 3 4 4 3 6 9 7 8 12 11 8 7 3 6 7 8 9 8 9 9 8 8 7 7 8 7 7 7 7 6 7 8 9 10 10 11 12 12 13 14 15 17 17 18 19 19 20 20 21 21 20 20 22 22 23 25 26 23 21 18 17 16 15 14 14 14 15 15 15 16 17 18 20 21 22 23 25 25 26 27 28 29 30 31 32 34 35 36 35 35 38 40
1 1 1 1 2 3 3 2 0 4 8 6 5 8 7 6 9 8 2 8 9 8 7 6 6 6 5 5 5 5 6 5 5 5 5 5 6 7 7 8 9 9 10 10 11 12 14 14 15 16 17 18 19 20 20 19 18 19 21 22 24 26 24 23 21 19 17 16 16 16 15 16 16 16 16 17 18 20 21 22 23 24 25 25 26 27 28 29 30 31 32 33 33 34 36 37 38
3 3 2 1 0 0 1 2 2 3 6 6 5 6 6 4 6 3 6 10 8 8 7 5 4 4 4 3 3 3 3 4 4 4 4 5 6 6 7 7 8 8 9 10 10 11 12 13 15 17 19 21 23 24 22 20 18 18 19 20 21 24 25 25 24 23 21 20 19 18 17 17 17 17 17 17 18 19 20 21 22 23 24 25 26 26 27 28 29 31 31 31 32 32 35 37 37
6 5 4 5 4 2 5 7 5 5 6 7 8 9 7 2 3 5 8 7 6 7 6 5 4 3 3 2 2 2 2 2 2 3 3 4 5 6 7 8 8 9 9 10 11 11 13 15 17 18 20 21 22 22 21 20 19 18 18 18 17 18 22 24 25 25 26 25 23 21 19 18 18 18 17 18 18 19 19 20 21 22 23 24 25 25 26 27 28 30 30 31 31 31 32 35 36
Wind_Direction
344 324 309 294 278 278 269 267 279 225 238 273 271 291 63 58 352 294 281 34 0 58 27 339 316 289 279 308 326 327 302 282 313 325 350 102 6 177 182 190 158 152 167 159 172 183 183 180 174 177 180 180 182 182 182 182 181 180 182 182 181 182 181 184 182 179 177 177 178 180 176 164 153 143 138 132 125 126 126 125 125 121 124 130 129 129 123 120 158 228 251 281 297 304 302 300 285
324 296 277 266 257 263 279 284 285 264 246 275 255 41 35 57 268 263 323 31 18 30 2 323 302 274 270 293 293 293 282 251 283 320 24 142 299 170 197 194 165 155 165 161 171 181 181 182 177 178 183 182 184 183 183 185 184 184 185 186 185 186 186 188 187 183 183 184 187 185 175 161 153 146 141 137 136 137 138 139 137 131 136 143 141 143 135 143 259 275 281 289 293 297 295 294 287
283 281 263 252 239 241 278 236 265 292 282 292 24 75 24 317 321 322 8 27 19 11 331 308 280 266 254 254 261 281 290 249 286 305 34 170 303 145 203 199 173 158 166 165 168 178 178 184 181 178 184 184 187 185 184 186 186 187 188 189 188 189 189 190 191 187 188 191 192 188 176 162 155 152 148 147 148 147 152 152 146 142 148 151 161 187 207 264 280 285 287 289 289 290 288 288 288
250 273 263 261 239 228 256 241 262 296 291 304 348 73 35 320 351 352 4 8 0 334 298 298 264 182 244 262 290 281 276 289 52 337 327 74 36 123 201 201 181 162 168 170 169 175 177 190 186 179 185 187 189 188 186 188 188 190 191 191 190 191 191 192 193 191 191 194 194 187 175 163 158 159 158 160 161 162 169 165 161 156 159 164 175 230 265 274 282 284 284 287 287 288 286 289 290
252 262 259 266 265 265 269 265 268 268 282 321 322 7 20 341 334 331 335 323 318 298 278 269 262 137 240 275 299 279 307 336 90 39 336 88 134 183 205 202 183 168 172 174 172 175 180 194 191 182 184 189 190 190 190 190 190 191 193 194 192 190 191 193 193 193 193 194 193 184 173 167 163 162 169 177 175 177 184 176 181 180 179 186 179 234 271 276 282 281 281 284 285 285 282 286 287
257 247 232 251 273 333 276 263 264 256 282 332 304 321 348 348 348 332 314 304 284 276 256 239 271 285 265 247 224 253 327 339 75 125 167 185 234 203 215 199 181 175 176 176 176 176 185 196 195 187 184 190 193 192 193 193 194 194 196 196 194 191 191 195 192 194 195 194 190 182 176 174 171 170 182 192 189 187 198 195 197 205 201 194 195 244 269 273 278 276 280 279 280 281 278 284 285
265 249 207 232 229 244 259 263 281 284 7 27 305 314 323 331 343 321 303 301 186 183 216 226 283 291 279 219 218 237 262 275 279 228 182 224 238 198 218 192 179 181 178 177 178 178 192 197 197 194 186 190 194 194 196 195 197 197 199 198 198 194 193 196 192 195 195 192 187 181 180 177 176 183 199 212 213 202 207 212 210 213 206 196 216 252 262 262 270 272 276 273 278 279 281 292 297
260 268 222 252 233 204 258 274 281 290 7 2 299 300 305 320 326 308 300 294 258 211 205 215 238 271 270 153 248 184 185 238 234 232 218 237 248 224 216 184 180 184 180 179 178 181 198 199 198 198 190 191 194 197 199 199 200 200 202 200 200 199 196 196 194 196 195 192 188 183 183 182 182 191 208 224 228 217 214 218 217 215 204 200 222 247 247 252 262 265 268 265 274 278 290 309 337
234 251 233 268 261 235 262 267 267 280 293 306 297 290 292 303 307 297 292 283 278 284 227 208 206 250 295 232 262 148 146 211 231 243 241 246 248 239 214 185 184 182 180 181 179 182 197 200 200 201 194 192 195 200 201 202 203 203 204 202 203 202 198 196 196 199 195 191 188 186 186 188 194 205 213 225 239 236 231 222 215 212 204 203 223 242 242 253 257 254 259 259 273 279 303 327 0
219 236 260 272 270 266 266 267 291 301 296 309 298 297 302 297 293 286 287 291 298 298 97 102 213 239 283 295 280 147 139 183 229 254 248 249 239 230 212 191 188 183 182 181 182 182 194 202 202 203 197 194 197 201 203 204 205 205 205 203 204 202 199 198 198 199 193 191 191 191 193 195 200 216 223 234 254 251 236 218 211 209 204 212 228 242 243 246 242 242 252 255 269 277 312 342 4
232 204 265 277 266 274 296 315 322 320 317 308 293 315 335 333 295 274 268 282 288 284 151 136 227 245 265 280 278 127 130 170 177 217 241 247 232 217 204 196 192 187 186 183 183 183 190 203 205 202 198 196 198 202 205 205 205 206 206 205 204 202 202 199 197 197 192 194 198 198 202 210 210 219 233 244 257 252 222 206 209 208 207 225 236 235 231 230 228 234 244 244 252 265 299 352 48
258 211 241 273 285 295 319 318 313 316 310 295 293 93 75 102 255 275 278 285 287 287 234 177 233 319 269 274 288 132 141 154 142 180 230 238 230 211 191 196 197 191 192 186 184 187 187 199 207 202 198 197 200 204 206 206 206 207 207 207 205 201 201 198 197 199 196 200 205 207 210 222 227 231 238 234 243 242 211 202 207 206 209 228 231 221 222 221 220 229 237 236 232 227 210 145 107
268 297 277 278 301 300 305 303 302 309 306 328 84 105 125 220 247 293 309 300 288 289 271 168 271 322 278 286 295 179 147 130 150 205 225 202 200 202 190 193 200 194 194 193 191 194 192 195 204 201 200 199 200 205 207 208 209 209 209 207 205 202 200 198 199 203 204 206 210 214 215 225 235 235 232 227 235 235 210 205 206 204 209 214 208 206 214 215 217 225 229 227 220 206 190 160 127
281 307 291 286 297 285 286 286 296 305 305 42 85 124 169 244 275 308 302 294 294 314 16 101 272 293 277 276 275 214 117 117 172 211 203 190 187 191 191 189 197 195 197 200 200 202 198 197 200 200 203 202 202 207 209 210 211 210 210 207 204 202 202 202 203 206 210 212 213 216 216 224 233 230 226 227 233 229 210 207 208 206 207 204 197 195 200 210 220 223 217 217 212 196 181 163 138
285 295 274 277 283 279 260 264 300 304 297 353 94 119 198 241 247 274 278 285 306 48 38 272 196 252 291 284 299 69 104 128 163 194 192 200 196 189 193 197 202 199 202 203 204 205 203 201 202 201 203 204 204 207 210 212 213 212 211 209 206 205 205 207 208 210 213 217 218 220 220 223 228 230 230 230 229 225 212 210 212 209 205 202 197 191 199 215 222 220 213 213 206 191 178 159 139
267 283 260 265 276 281 245 252 294 282 306 13 112 130 269 257 209 256 299 294 298 309 252 247 195 233 277 283 304 87 124 150 140 181 178 191 191 192 203 207 210 207 209 206 205 207 205 203 203 204 204 204 204 207 210 211 214 213 212 212 209 209 210 211 213 216 218 220 222 224 225 225 228 231 232 229 228 226 217 213 215 210 203 201 196 195 209 221 220 218 217 210 204 193 177 156 137
243 257 252 261 264 274 269 263 295 297 319 346 141 153 289 300 189 223 348 267 275 276 260 254 229 234 254 266 272 128 185 221 194 186 162 179 189 195 207 208 210 210 210 208 209 209 207 204 204 206 206 206 206 206 209 210 214 213 212 214 213 212 214 215 216 218 220 221 224 225 226 225 225 227 228 228 229 228 221 217 217 208 201 199 197 207 220 221 218 218 216 212 207 194 171 150 133
221 237 249 259 261 281 300 286 304 307 301 304 298 300 296 297 275 216 275 257 262 271 266 261 251 239 243 255 247 212 236 233 204 201 190 193 199 205 206 204 208 209 209 209 211 208 205 204 205 206 206 208 208 208 209 210 214 214 212 214 216 216 217 218 218 219 221 222 223 224 223 220 217 219 223 224 223 224 219 217 218 208 200 199 204 216 222 218 217 217 217 217 209 195 179 159 138
228 252 260 257 262 284 303 292 299 298 292 299 304 305 295 290 290 286 277 276 279 279 274 269 264 253 245 245 237 222 220 215 201 210 218 214 214 219 216 207 207 209 209 208 209 208 204 204 205 207 207 208 208 209 210 210 213 215 213 213 217 218 218 219 218 219 221 221 224 223 218 213 210 211 215 215 212 212 215 217 216 209 202 204 210 216 218 216 216 216 218 216 208 204 197 186 173
237 243 257 261 267 279 280 284 287 286 292 296 298 302 293 283 280 267 267 279 282 276 274 274 272 272 266 253 248 224 206 219 214 217 229 228 228 228 229 220 211 210 210 208 208 207 205 205 206 207 208 207 208 210 211 211 211 212 211 212 215 217 219 221 219 218 217 215 220 221 212 208 207 205 211 213 209 205 211 216 213 208 207 210 213 213 214 215 215 216 214 209 208 204 199 206 207
242 223 249 270 283 283 275 282 284 283 296 296 296 296 286 287 281 252 261 277 274 266 270 274 276 287 293 297 300 251 204 224 223 222 229 232 234 231 234 233 226 220 211 207 207 207 208 208 207 208 208 207 207 210 212 213 212 212 213 213 214 215 217 219 218 216 214 210 214 214 205 205 203 199 207 209 205 199 202 210 208 205 205 211 214 210 211 213 213 215 209 203 206 203 201 206 208
258 236 248 267 276 278 277 285 284 284 299 291 287 284 284 293 270 248 258 263 262 267 277 282 285 293 297 299 306 273 220 240 238 234 233 233 235 233 236 236 235 228 211 208 210 210 210 209 208 207 207 207 206 208 212 215 214 215 215 215 214 216 217 216 216 216 217 212 211 211 202 202 200 196 201 200 198 195 195 202 202 200 199 209 212 204 208 214 213 211 206 202 203 205 206 206 206
255 258 256 265 268 272 280 288 284 253 278 277 279 284 290 285 272 264 259 254 257 266 273 280 284 288 292 292 289 263 244 254 253 247 241 237 237 233 234 234 233 226 214 213 214 212 209 209 209 208 206 206 207 208 211 214 216 217 218 218 217 218 218 217 218 218 219 214 210 208 201 201 199 195 197 196 195 195 195 195 195 197 195 206 211 198 203 213 211 209 206 204 205 207 209 209 210
244 268 270 272 273 273 279 285 275 251 265 269 278 283 281 277 279 279 266 261 265 267 268 272 279 283 285 284 276 262 255 257 256 253 247 242 241 237 234 234 232 227 222 219 215 212 209 209 209 209 208 206 206 207 209 213 216 218 219 219 219 219 218 219 220 219 219 215 209 206 202 201 198 194 197 196 196 196 197 194 191 196 193 203 209 198 204 213 210 209 207 207 208 210 211 211 211
244 259 271 276 275 275 279 281 271 258 259 264 271 272 270 272 281 282 274 270 266 266 268 271 275 278 277 274 269 263 260 259 257 255 251 243 242 242 237 233 230 227 227 223 215 213 212 212 211 210 209 207 206 206 207 212 215 217 217 217 219 220 220 220 221 220 218 215 211 207 203 200 197 196 199 196 196 196 196 194 191 194 193 200 206 201 208 213 208 209 210 209 210 210 211 212 212
260 267 282 286 283 284 283 280 271 257 252 254 259 264 267 274 282 279 270 265 262 261 267 272 272 274 273 270 269 264 260 260 257 256 253 244 237 237 237 230 225 225 227 225 219 218 216 213 212 213 214 211 207 206 207 210 213 215 215 216 219 220 221 220 221 220 215 215 212 207 205 204 201 200 201 198 197 198 196 195 193 193 194 202 207 206 211 213 208 210 211 209 209 209 210 211 211
314 295 292 286 284 285 279 275 269 257 254 248 246 263 273 279 280 273 269 266 261 254 261 274 277 275 274 272 271 266 261 257 256 257 256 248 232 229 236 229 224 227 227 225 221 220 219 215 214 217 219 217 211 208 210 210 210 213 212 213 216 217 218 218 221 220 216 215 212 209 213 214 210 204 203 201 198 198 197 197 198 198 201 208 211 211 213 212 209 211 211 209 209 207 209 210 209
299 297 296 284 280 280 272 268 264 254 252 242 237 263 277 277 260 255 263 267 263 255 262 277 282 281 278 276 274 270 264 256 255 254 251 249 236 230 235 228 227 229 226 226 224 221 218 215 217 221 220 219 217 212 213 213 209 211 211 210 213 213 215 217 220 221 216 213 213 217 221 220 216 210 206 207 203 199 201 204 207 208 210 214 215 214 214 211 208 212 211 209 208 206 209 209 208
285 291 290 285 285 280 272 267 259 248 227 189 215 259 273 265 248 247 255 261 260 254 263 276 281 283 282 279 276 274 272 266 262 257 252 252 246 241 242 236 229 228 231 233 228 220 218 217 218 221 218 218 221 216 213 214 209 209 211 210 212 212 212 215 219 222 216 210 216 223 224 222 219 214 209 212 211 205 207 212 213 213 214 216 218 216 215 211 208 211 211 209 207 206 209 210 207
277 279 274 285 290 279 277 273 239 228 180 148 189 259 276 271 271 273 278 282 270 257 271 284 285 285 283 281 279 275 275 274 273 271 268 263 251 244 246 247 237 228 231 231 224 222 224 227 223 219 216 215 220 219 213 212 210 209 212 211 211 211 211 213 217 221 217 212 218 226 226 223 221 217 213 214 214 211 212 217 217 217 217 217 218 217 216 213 210 213 212 209 208 207 209 211 208
270 276 256 265 276 275 288 279 159 183 162 159 201 256 275 280 287 295 318 359 289 281 285 288 286 284 281 278 277 275 274 273 275 279 282 279 268 254 249 253 248 238 234 222 226 236 232 230 228 222 220 218 218 219 214 210 211 210 211 213 212 211 211 212 214 217 217 214 219 227 228 224 221 218 215 214 215 215 215 218 219 219 218 218 219 218 217 214 213 215 213 208 208 207 208 212 208
258 271 262 247 257 272 286 269 192 210 183 173 203 256 271 272 286 295 308 305 280 285 287 287 284 281 278 276 274 273 275 274 276 282 288 285 280 272 257 255 254 248 244 231 232 242 234 226 231 228 226 222 218 220 217 212 213 211 211 213 212 208 208 211 212 214 216 215 217 226 229 225 221 219 216 216 217 218 217 219 220 219 219 219 219 219 217 214 213 214 213 209 207 205 205 209 205
247 248 262 261 268 281 284 289 265 206 156 189 210 254 277 272 287 292 295 294 290 286 284 286 285 279 276 276 274 273 277 280 281 284 291 292 291 288 276 271 268 259 256 248 239 241 235 226 231 232 231 227 218 219 219 214 213 212 211 213 211 208 207 209 211 213 214 216 216 221 228 226 222 220 218 217 219 220 219 219 221 220 220 220 219 218 216 213 212 212 211 208 207 204 204 206 201
261 252 260 258 261 279 288 299 308 153 181 220 223 243 262 269 281 285 287 291 290 283 281 283 282 279 277 278 278 277 280 284 289 297 304 305 302 301 297 294 290 279 273 267 255 249 247 235 231 234 233 226 216 216 218 215 214 215 214 215 213 212 211 211 212 213 213 216 217 218 225 227 223 221 219 219 220 221 220 219 220 221 221 220 218 218 215 211 211 211 209 207 206 204 203 204 199
279 282 285 279 270 283 292 295 302 249 254 259 249 256 265 271 277 280 282 287 287 281 278 278 278 281 284 283 282 283 286 290 305 324 320 314 314 319 319 321 321 311 303 297 283 266 260 251 237 236 235 225 215 214 213 210 211 215 216 215 215 214 215 215 214 215 215 218 219 218 223 225 224 222 221 221 220 220 221 220 220 221 222 220 217 216 213 208 207 207 208 206 203 202 204 202 196
281 288 291 291 285 285 288 287 288 291 287 276 273 278 281 283 283 281 281 283 281 276 276 278 281 284 284 283 285 289 295 309 332 331 324 328 340 348 351 353 355 346 334 326 311 284 264 256 242 234 236 227 214 210 208 205 207 212 214 215 218 217 217 219 220 220 220 221 219 219 223 224 225 224 221 221 221 220 221 220 220 222 223 219 216 215 211 208 207 206 206 205 201 196 197 197 194
280 285 283 280 281 282 284 283 284 294 290 277 281 286 288 291 287 281 279 277 270 271 278 284 281 277 277 283 291 300 312 333 340 339 352 6 9 9 13 15 17 22 20 8 346 314 278 260 246 237 231 219 211 208 206 205 206 209 213 217 222 223 222 224 227 225 222 221 219 221 226 227 226 225 222 221 221 220 220 220 220 222 222 219 217 216 212 210 210 208 205 204 202 196 191 190 191
278 279 278 277 278 280 280 281 285 293 287 278 283 286 289 291 282 275 271 269 269 275 284 281 274 274 286 300 307 321 332 350 8 26 33 31 28 28 32 34 33 36 35 30 21 358 321 283 260 250 235 215 212 212 209 210 213 213 217 222 227 229 226 225 229 227 224 225 225 228 231 230 228 226 224 222 221 220 219 219 220 221 221 219 218 217 214 212 211 209 204 203 204 200 196 192 188
273 271 271 274 277 281 281 278 280 289 287 284 288 290 289 282 275 270 266 264 270 276 271 266 269 278 300 330 335 341 351 17 36 44 41 38 41 39 36 36 34 34 33 28 22 14 4 345 305 272 248 226 219 216 214 216 219 220 224 229 232 233 231 230 233 233 231 231 231 234 235 234 231 229 227 224 222 221 220 218 220 222 221 219 217 215 214 213 212 210 206 204 202 201 202 199 194
256 257 265 272 275 278 283 286 283 282 275 285 294 292 281 271 265 263 268 267 264 265 262 260 261 269 289 305 334 2 26 37 41 43 38 39 43 38 33 31 29 29 28 22 18 17 14 6 351 323 277 246 232 224 222 224 224 222 225 231 236 235 236 238 236 235 235 233 232 234 237 237 236 233 232 229 226 224 222 220 220 222 222 220 218 216 214 214 213 211 209 207 201 195 197 202 201
252 253 257 265 270 276 286 298 303 296 282 286 305 296 276 258 261 253 213 230 246 244 250 257 247 207 215 146 91 63 55 47 45 43 37 39 41 39 36 31 29 30 26 19 17 17 14 9 4 351 325 281 255 233 227 226 221 216 215 223 234 238 240 242 239 236 232 230 234 237 240 241 239 237 236 234 231 229 225 223 222 223 223 221 219 217 216 216 215 214 212 209 204 199 196 198 203
265 256 254 262 272 283 291 300 308 301 283 4 3 315 287 131 306 262 187 224 259 234 242 256 161 133 149 109 90 76 67 57 51 45 40 39 37 39 38 31 29 28 23 19 19 21 19 15 12 4 358 340 305 253 227 221 217 217 214 219 230 238 243 242 241 242 236 233 238 241 243 244 241 239 238 237 235 233 230 226 224 224 225 223 220 218 218 218 217 216 214 210 209 208 201 194 199
269 272 281 278 282 288 291 298 303 292 283 308 38 302 280 270 273 260 249 268 272 248 249 274 78 95 88 77 69 65 66 61 53 48 42 36 33 34 33 29 27 22 17 17 21 24 23 20 17 13 9 4 350 318 239 221 220 225 226 232 241 249 256 258 257 257 251 243 243 239 240 245 244 241 240 238 237 235 233 230 227 226 225 224 222 218 218 219 219 218 216 214 212 211 206 199 199
266 10 355 311 296 294 297 298 283 276 291 286 223 220 265 285 277 255 238 242 252 253 258 75 80 79 75 66 57 56 56 54 52 46 39 35 32 31 31 29 26 21 15 16 20 20 20 21 20 19 15 11 1 346 303 224 229 240 240 241 247 254 263 271 276 277 267 252 245 237 235 242 246 245 241 239 239 238 234 232 229 228 228 226 224 221 219 219 220 219 218 216 214 212 210 208 204
281 49 2 337 315 296 296 286 277 284 297 286 201 191 258 285 286 168 176 226 247 231 89 90 88 77 70 63 60 60 57 53 51 46 40 35 32 28 28 28 27 25 21 19 19 16 17 19 21 23 21 15 6 354 346 314 276 274 264 256 257 263 268 274 276 278 273 257 246 239 235 239 245 247 244 240 240 239 236 234 231 230 230 228 227 225 223 221 222 221 218 216 215 214 214 213 211
69 78 314 298 251 260 261 263 279 287 280 272 204 181 246 294 298 147 185 241 224 115 96 87 87 81 72 67 65 63 59 53 46 45 41 35 33 27 23 26 28 29 25 22 22 17 17 19 20 23 20 15 9 2 360 359 352 308 282 278 280 282 283 282 279 275 272 265 253 239 233 236 238 243 245 244 242 240 239 237 235 232 232 231 229 227 226 224 224 223 221 219 217 217 216 216 215
69 250 281 274 244 238 239 247 269 271 266 273 210 186 215 298 343 142 186 273 92 102 87 74 77 79 78 73 64 57 54 50 43 42 37 32 33 26 22 29 31 30 26 23 21 19 18 19 20 21 19 16 11 8 6 3 358 337 317 317 308 301 295 289 283 278 275 273 268 255 242 239 235 235 241 245 245 243 241 240 238 235 234 233 231 230 228 224 223 223 223 222 220 219 218 217 217
242 262 288 295 269 233 230 222 202 247 270 304 175 185 210 242 225 90 61 58 61 71 76 78 76 77 80 75 65 55 46 42 39 36 29 23 22 19 23 30 31 29 26 22 19 17 17 18 19 19 18 15 11 9 8 5 4 0 356 353 334 316 306 296 287 284 282 279 277 271 262 252 242 234 232 239 246 246 243 241 239 237 236 234 232 232 231 228 227 226 225 224 222 221 220 219 219
216 244 257 286 294 271 258 247 224 251 266 63 94 195 226 242 260 271 244 88 69 66 72 82 84 81 76 73 69 63 54 48 43 36 27 21 16 19 23 26 27 24 22 20 18 17 17 17 18 18 16 14 12 10 7 7 8 9 13 10 353 331 315 304 295 291 289 286 283 279 274 265 255 244 233 239 249 251 246 243 241 239 237 235 235 234 233 232 230 229 227 225 223 222 222 220 220
189 210 224 252 286 286 277 275 270 269 261 101 63 314 263 264 275 248 227 87 74 75 76 80 85 82 75 74 74 70 66 58 53 46 34 27 25 26 27 26 24 21 17 16 17 18 18 17 16 15 14 13 14 13 10 8 7 11 17 13 360 344 328 317 307 302 298 295 291 286 281 276 269 262 249 247 254 255 252 250 248 244 239 239 239 237 236 234 232 230 230 228 226 225 224 222 223
199 207 231 246 260 267 271 277 274 277 290 245 194 222 275 296 40 99 89 76 78 79 81 83 82 84 83 77 70 66 63 57 55 52 41 36 32 29 28 26 24 21 18 18 19 19 19 17 14 13 13 13 15 16 14 12 12 17 21 16 5 351 336 325 317 312 309 305 300 295 290 283 279 277 272 265 260 257 257 256 253 248 244 243 242 240 238 236 234 232 232 231 229 228 226 224 225
213 162 229 244 252 251 259 272 276 291 302 272 222 232 269 293 256 161 98 79 79 75 78 83 80 85 89 75 67 63 62 59 50 46 43 39 36 31 26 22 20 19 19 20 20 18 16 14 13 14 15 15 17 18 17 18 22 24 22 15 6 357 348 338 327 321 318 313 307 301 295 289 286 284 282 280 270 262 263 262 258 253 249 247 245 242 240 237 235 233 233 234 232 230 228 227 227
127 147 222 245 331 282 261 269 273 275 276 265 251 261 264 273 261 208 122 83 77 76 72 72 70 76 79 70 66 60 55 51 43 41 39 35 32 28 24 21 19 17 15 15 14 13 12 11 12 13 15 17 18 20 21 23 27 27 22 16 9 1 354 346 338 330 324 319 311 304 297 292 290 288 287 284 274 268 271 269 263 258 253 250 248 245 242 240 237 235 235 234 234 232 231 230 229
175 198 276 16 15 316 250 263 270 256 258 259 253 264 268 275 276 151 113 89 74 71 63 62 57 54 59 56 49 46 39 35 37 36 33 30 27 22 20 20 19 16 13 10 8 8 9 9 10 12 13 15 17 22 25 25 27 27 24 20 17 13 4 354 345 337 331 325 317 309 302 296 292 290 289 285 275 273 277 273 266 262 257 253 251 248 245 243 239 237 236 236 236 234 233 232 231
288 258 357 0 252 249 226 229 248 244 252 256 239 253 264 259 257 208 129 110 89 77 67 65 56 48 50 46 39 37 32 29 30 28 25 24 21 19 17 15 15 15 13 10 8 7 9 8 8 9 11 12 16 22 25 25 26 26 23 22 23 22 17 8 358 348 340 333 326 319 311 304 299 295 291 285 277 276 279 275 268 265 261 256 253 250 248 245 241 239 239 239 238 235 234 235 233
38 289 327 18 281 273 251 218 343 247 253 262 238 245 255 251 268 272 162 114 109 105 92 78 70 64 54 43 39 31 26 27 19 15 15 10 8 10 8 7 7 8 9 9 8 9 11 8 7 9 9 10 15 18 19 19 20 21 22 23 24 24 21 19 15 7 355 345 336 328 320 314 308 301 296 290 282 278 280 277 270 266 262 258 254 252 250 247 243 243 242 241 239 236 235 236 236
172 217 220 180 180 272 275 244 198 226 251 259 253 251 242 247 293 308 112 112 116 120 116 113 98 83 71 55 46 30 26 23 11 7 4 355 356 357 358 1 359 1 5 7 9 10 11 11 10 12 13 14 15 14 12 10 9 11 14 17 20 22 22 23 22 17 11 4 355 345 333 324 317 309 303 298 289 283 281 279 274 269 264 259 256 254 252 248 245 245 245 243 241 238 237 237 237
219 220 207 211 210 209 258 248 206 193 229 239 253 259 247 246 4 78 111 114 113 116 119 121 118 116 116 100 68 52 35 19 6 354 344 346 350 350 352 356 360 4 6 6 9 10 11 13 13 14 16 15 14 11 7 3 1 2 4 4 6 11 16 20 21 20 19 14 9 1 350 337 328 320 313 306 298 290 285 281 277 273 268 263 259 256 253 249 247 247 246 245 243 241 239 238 238